Hourly Data Report for October 26, 2016

All times are specified in Local Standard Time (LST). Add 1 hour to adjust for Daylight Saving Time where and when it is observed.

KUGLUKTUK A
NUNAVUT

67°49'00.000" N
115°08'38.000" W
22.60 m
2300903
71938
YCO

Download Data

Hourly Data (October 2016)
Hourly Data Report for October 26, 2016
Temp Definition
°C
Dew Point Temp Definition
°C
Rel Hum Definition
%
Wind Dir Definition
10's deg

Wind Spd Definition
km/h
Visibility Definition
km
Stn Press Definition
kPa
Hmdx Definition


Wind Chill Definition


Weather Definition


TIME
00:00 Legend Double Dagger -4.1 -4.9 94 23 12 24.1 101.97   -9 LegendNANA
01:00 Legend Double Dagger -4.2 -4.9 95 26 12 24.1 101.95   -9 LegendNANA
02:00 Legend Double Dagger -4.2 -4.8 96 21 3 24.1 101.90   -5 Cloudy
03:00 Legend Double Dagger -4.3 -5.0 95 36 3 19.3 101.86   -6 LegendNANA
04:00 Legend Double Dagger -5.2 -6.0 94 26 8 24.1 101.84   -9 LegendNANA
05:00 Legend Double Dagger -8.0 -8.8 94 28 10 16.1 101.81   -13 Cloudy
06:00 Legend Double Dagger -9.3 -10.4 92 26 15 24.1 101.76   -16 LegendNANA
07:00 Legend Double Dagger -10.1 -11.3 91 22 13 24.1 101.73   -16 LegendNANA
08:00 Legend Double Dagger -8.9 -10.1 91 21 13 24.1 101.69   -15 Mostly Cloudy
09:00 Legend Double Dagger -8.2 -9.4 91 24 6 24.1 101.65   -11 LegendNANA
10:00 Legend Double Dagger -8.0 -9.5 89 1 3 24.1 101.64   -10 LegendNANA
11:00 Legend Double Dagger -7.8 -9.5 88 22 4 24.1 101.60   -10 Mostly Cloudy
12:00 Legend Double Dagger -7.3 -9.1 87 27 3 24.1 101.55   -9 LegendNANA
13:00 Legend Double Dagger -6.8 -8.6 87 36 2 24.1 101.52   -8 LegendNANA
14:00 Legend Double Dagger -5.9 -8.0 85 36 3 24.1 101.53   -7 Cloudy
15:00 Legend Double Dagger -5.1 -6.6 89 14 7 24.1 101.50   -8 LegendNANA
16:00 Legend Double Dagger -4.9 -6.2 91 15 3 24.1 101.49   -6 LegendNANA
17:00 Legend Double Dagger -4.1 -5.5 90 12 3 24.1 101.44   -5 Cloudy
18:00 Legend Double Dagger -3.9 -5.2 91 36 3 24.1 101.41   -5 LegendNANA
19:00 Legend Double Dagger -2.4 -4.3 87 12 13 24.1 101.38   -7 LegendNANA
20:00 Legend Double Dagger -2.3 -4.5 85 23 7 24.1 101.38   -5 Cloudy
21:00 Legend Double Dagger -2.1 -3.8 88 7 6 24.1 101.37   -4 LegendNANA
22:00 Legend Double Dagger -1.9 -3.6 88 7 9 24.1 101.38   -5 LegendNANA
23:00 Legend Double Dagger -2.7 -4.3 89 10 3 24.1 101.38   -4 Cloudy

Notes on Data Quality.

Legend

  • E = Estimated
  • M = Missing
  • NA = Not Available
  • ‡ = Partner data that is not subject to review by the National Climate Archives
Date modified: